Regional Weather Roundup
Issued by NWS

Home | Current Version | Previous Version | Graphics & Text | Print | Product List | Glossary On
Versions: 1 2 3 4 5 6 7 8 9 10 11 12 13 14 15 16 17 18 19 20 21 22 23 24 25 26 27 28 29 30 31 32 33 34 35 36 37 38 39 40 41 42 43 44 45 46 47 48 49 50
000
ASUS43 KLOT 232200
RWRIL

ILLINOIS REGIONAL WEATHER ROUNDUP
NATIONAL WEATHER SERVICE CHICAGO/ROMEOVILLE IL
500 PM CDT TUE SEP 23 2014

NOTE: "FAIR" INDICATES FEW OR NO CLOUDS BELOW 12,000 FEET WITH NO
SIGNIFICANT WEATHER AND/OR OBSTRUCTIONS TO VISIBILITY.

* THESE STATIONS ARE NOT UNDER NWS QUALITY CONTROL. THEY ALSO MAY NOT
  REPORT WEATHER SUCH AS PRECIPITATION OR FOG.

ILZ001-002-007-009-015-016-024-232300-
NORTHWEST ILLINOIS

CITY           SKY/WX    TMP DP  RH WIND       PRES   REMARKS
MOLINE         SUNNY     74  46  36 SE6       30.23F
STERLING*      SUNNY     73  46  38 S6        30.25S
$$

ILZ003-004-008-010-011-017-018-232300-
NORTH CENTRAL ILLINOIS

CITY           SKY/WX    TMP DP  RH WIND       PRES   REMARKS
ROCKFORD       MOSUNNY   73  48  41 S6        30.27F
$$

ILZ005-006-012>014-019>023-232300-
NORTHEAST ILLINOIS

CITY           SKY/WX    TMP DP  RH WIND       PRES   REMARKS
CHICAGO-OHARE  MOSUNNY   72  46  39 CALM      30.27F
CHICAGO-MIDWAY MOSUNNY   73  50  44 E10       30.27F
AURORA         SUNNY     73  49  42 SE5       30.27F
LANSING*       SUNNY     71  49  46 SE6       30.28S
WAUKEGAN       SUNNY     66  49  54 SE9       30.27F
DUPAGE AIRPORT SUNNY     74  48  39 SW3       30.27F
WHEELING       SUNNY     72  48  42 SE8       30.28F
NORTHERLY ISL    N/A     65  54  67 E9          N/A
$$

LMZ740>746-232300-
SOUTHERN LAKE MICHIGAN

STATION/POSITION SKY/WX   TEMP    WIND        PRES    VSBY  WAVE
                          AIR SEA DIR/SP/G                  HT/PER
                          (F)     (DEG/KT/KT) (MB)    (MI)  (FT/S)
SOUTHERN BUOY              62 61  180/  8/ 10 1026.3F         1/ 3
WAUKEGAN HARBOR            67     180/  6/  7   N/A
BURNHAM HARBOR             65      90/  7/ 10   N/A
CALUMET HARBOR             67      60/  8/ 10 1024.2F
MICHIGAN CITY 6N           64 64   50/  6/  8   N/A           1
ST. JOSEPH                 64 65   10/  4/  6   N/A           1
$$

ILZ025>027-034>036-040-047-049-050-058-095>099-232300-
WEST-CENTRAL ILLINOIS

CITY           SKY/WX    TMP DP  RH WIND       PRES   REMARKS
QUINCY         PTSUNNY   72  50  45 S6        30.23F
GALESBURG*     SUNNY    N/A N/A N/A E6        30.24S
MACOMB*        MOSUNNY   74  44  34 S5        30.26S
$$

ILZ028>032-037-038-041>044-048-051>054-059>061-232300-
CENTRAL ILLINOIS

CITY           SKY/WX    TMP DP  RH WIND       PRES   REMARKS
DECATUR        SUNNY     75  45  34 CALM      30.25F
PEORIA         SUNNY     75  46  35 SE5       30.25F
SPRINGFIELD    SUNNY     74  48  39 SE3       30.24F
TAYLORVILLE    NOT AVBL
$$

ILZ033-039-045-046-055>057-062-063-232300-
EAST-CENTRAL ILLINOIS

CITY           SKY/WX    TMP DP  RH WIND       PRES   REMARKS
CHAMPAIGN      SUNNY     73  48  41 E6        30.26F
MATTOON        SUNNY     71  47  42 SE9       30.25F
$$

ILZ079-100>102-232300-
SOUTHWEST ILLINOIS

CITY           SKY/WX    TMP DP  RH WIND       PRES   REMARKS
BELLEVILLE     SUNNY     74  48  39 NE7       30.22F
CAHOKIA*       SUNNY     76  48  37 E8        30.22F
SPARTA*        SUNNY     73  48  40 E7        30.24F
$$

ILZ064>066-069>071-074>076-080>082-084>086-088>090-092>094-232300-
SOUTH-CENTRAL ILLINOIS

CITY           SKY/WX    TMP DP  RH WIND       PRES   REMARKS
CARBONDALE     SUNNY     74  47  38 E6        30.23F
MARION         MOSUNNY   75  46  35 E7        30.24F
MT. VERNON     SUNNY     73  46  38 NE7       30.25F
$$

ILZ067-068-072-073-078-083-087-091-232300-
SOUTHEAST ILLINOIS

CITY           SKY/WX    TMP DP  RH WIND       PRES   REMARKS
LAWRENCEVILLE  SUNNY     74  46  36 E7        30.25F
ROBINSON*      SUNNY     74  51  45 NE6       30.27S
$$

ABBREVIATIONS USED IN REMARKS
   TC - TEMPERATURE IN CELSIUS
  WCI - WIND CHILL INDEX
   HX - HEAT INDEX
  VSB - VISIBILITY
$$




USA.gov is the U.S. government's official web portal to all federal, state and local government web resources and services.